FDX444 KMEM-KLBB

Flight info

Callsign FDX444
Flight time 1h 31m
Altitude 34000
Route CHLDR5 ANSWA LIT ADM GTH
Aircraft B763/H-SDE3FGHIM3RWXY/LB1

Departure

Time 2026-04-23 18:38
Airport Memphis International Airport (KMEM)

Arrival

Time 2026-04-23 20:09
Airport Lubbock Preston Smith International Airport (KLBB)
Time Latitude Longitude Altitude Speed Heading
2026-04-23 18:23 35.06113 -89.98451 347 ft 0 kts 91°
2026-04-23 18:26 35.06113 -89.98456 347 ft 2 kts 91°
2026-04-23 18:26 35.06114 -89.98467 347 ft 2 kts 106°
2026-04-23 18:26 35.06116 -89.98474 347 ft 2 kts 114°
2026-04-23 18:27 35.06123 -89.98490 347 ft 2 kts 125°
2026-04-23 18:27 35.06132 -89.98504 347 ft 2 kts 138°
2026-04-23 18:27 35.06144 -89.98515 347 ft 2 kts 150°
2026-04-23 18:27 35.06158 -89.98523 347 ft 2 kts 163°
2026-04-23 18:28 35.06172 -89.98527 347 ft 2 kts 175°
2026-04-23 18:28 35.06183 -89.98527 347 ft 0 kts 184°
2026-04-23 18:28 35.06185 -89.98527 347 ft 0 kts 185°
2026-04-23 18:30 35.06183 -89.98527 347 ft 0 kts 185°
2026-04-23 18:31 35.06170 -89.98528 347 ft 2 kts 184°
2026-04-23 18:31 35.06148 -89.98529 347 ft 3 kts 182°
2026-04-23 18:31 35.06117 -89.98529 347 ft 4 kts 177°
2026-04-23 18:31 35.06081 -89.98527 347 ft 5 kts 175°
2026-04-23 18:32 35.06039 -89.98521 347 ft 6 kts 174°
2026-04-23 18:32 35.05985 -89.98515 347 ft 8 kts 175°
2026-04-23 18:32 35.05922 -89.98511 347 ft 9 kts 179°
2026-04-23 18:32 35.05848 -89.98507 347 ft 11 kts 178°
2026-04-23 18:33 35.05763 -89.98505 347 ft 12 kts 186°
2026-04-23 18:33 35.05711 -89.98507 347 ft 1 kts 180°
2026-04-23 18:33 35.05686 -89.98507 347 ft 5 kts 179°
2026-04-23 18:33 35.05640 -89.98505 347 ft 7 kts 178°
2026-04-23 18:34 35.05580 -89.98505 347 ft 8 kts 181°
2026-04-23 18:34 35.05516 -89.98508 347 ft 10 kts 181°
2026-04-23 18:34 35.05439 -89.98510 347 ft 12 kts 181°
2026-04-23 18:34 35.05344 -89.98511 347 ft 14 kts 181°
2026-04-23 18:35 35.05235 -89.98514 347 ft 16 kts 181°
2026-04-23 18:35 35.05115 -89.98531 347 ft 18 kts 198°
2026-04-23 18:35 35.05039 -89.98566 347 ft 9 kts 202°
2026-04-23 18:35 35.04980 -89.98597 347 ft 5 kts 208°
2026-04-23 18:36 35.04940 -89.98633 347 ft 7 kts 228°
2026-04-23 18:36 35.04917 -89.98681 347 ft 7 kts 245°
2026-04-23 18:36 35.04887 -89.98725 347 ft 6 kts 206°
2026-04-23 18:36 35.04836 -89.98740 347 ft 8 kts 186°
2026-04-23 18:37 35.04768 -89.98740 347 ft 10 kts 178°
2026-04-23 18:37 35.04557 -89.98741 347 ft 61 kts 180°
2026-04-23 18:37 35.03904 -89.98727 347 ft 125 kts 179°
2026-04-23 18:37 35.02831 -89.98720 436 ft 173 kts 180°
2026-04-23 18:38 35.01658 -89.98704 1198 ft 172 kts 181°
2026-04-23 18:38 35.00397 -89.98714 1638 ft 196 kts 184°
2026-04-23 18:38 34.99051 -89.99099 2389 ft 204 kts 200°
2026-04-23 18:38 34.97681 -89.99699 3133 ft 220 kts 200°
2026-04-23 18:39 34.96191 -90.00358 3887 ft 235 kts 204°
2026-04-23 18:39 34.94886 -90.01489 4681 ft 237 kts 230°
2026-04-23 18:39 34.94222 -90.03335 5270 ft 243 kts 261°
2026-04-23 18:39 34.94176 -90.05431 5907 ft 248 kts 268°
2026-04-23 18:40 34.94173 -90.07461 6620 ft 246 kts 267°
2026-04-23 18:40 34.94166 -90.09553 7270 ft 248 kts 268°
2026-04-23 18:40 34.94120 -90.11646 7933 ft 248 kts 264°
2026-04-23 18:40 34.93970 -90.13728 8561 ft 250 kts 264°
2026-04-23 18:41 34.93824 -90.15841 9185 ft 251 kts 265°
2026-04-23 18:41 34.93681 -90.17944 9798 ft 253 kts 265°
2026-04-23 18:41 34.93534 -90.20100 10273 ft 260 kts 266°
2026-04-23 18:41 34.93383 -90.22362 10452 ft 278 kts 266°
2026-04-23 18:42 34.93243 -90.24783 10673 ft 296 kts 267°
2026-04-23 18:42 34.93098 -90.27368 10938 ft 311 kts 267°
2026-04-23 18:42 34.92950 -90.29973 11523 ft 316 kts 268°
2026-04-23 18:42 34.92795 -90.32689 12142 ft 320 kts 268°
2026-04-23 18:43 34.92646 -90.35325 12785 ft 322 kts 268°
2026-04-23 18:43 34.92490 -90.38045 13422 ft 325 kts 268°
2026-04-23 18:43 34.92333 -90.40791 14042 ft 327 kts 268°
2026-04-23 18:43 34.92174 -90.43555 14659 ft 329 kts 269°
2026-04-23 18:44 34.92014 -90.46321 15270 ft 331 kts 269°
2026-04-23 18:44 34.91849 -90.49165 15877 ft 334 kts 269°
2026-04-23 18:44 34.91685 -90.51968 16457 ft 336 kts 269°
2026-04-23 18:44 34.91519 -90.54807 17027 ft 339 kts 269°
2026-04-23 18:45 34.91349 -90.57690 17606 ft 341 kts 269°
2026-04-23 18:45 34.91180 -90.60568 18147 ft 343 kts 269°
2026-04-23 18:45 34.91007 -90.63477 18699 ft 345 kts 269°
2026-04-23 18:45 34.90834 -90.66386 19219 ft 348 kts 268°
2026-04-23 18:46 34.90659 -90.69325 19748 ft 350 kts 269°
2026-04-23 18:46 34.90476 -90.72291 20267 ft 353 kts 267°
2026-04-23 18:46 34.90075 -90.75248 20776 ft 357 kts 263°
2026-04-23 18:46 34.89629 -90.78237 21267 ft 360 kts 263°
2026-04-23 18:47 34.89176 -90.81239 21766 ft 362 kts 263°
2026-04-23 18:47 34.88720 -90.84247 22270 ft 364 kts 263°
2026-04-23 18:47 34.88257 -90.87289 22723 ft 367 kts 263°
2026-04-23 18:47 34.87793 -90.90331 23184 ft 370 kts 263°
2026-04-23 18:48 34.87321 -90.93411 23653 ft 372 kts 263°
2026-04-23 18:48 34.86845 -90.96508 24100 ft 374 kts 263°
2026-04-23 18:48 34.86360 -90.99667 24579 ft 376 kts 263°
2026-04-23 18:48 34.85884 -91.02760 24996 ft 378 kts 263°
2026-04-23 18:49 34.85394 -91.05933 25438 ft 380 kts 263°
2026-04-23 18:49 34.84909 -91.09069 25828 ft 383 kts 263°
2026-04-23 18:49 34.84409 -91.12300 26254 ft 385 kts 263°
2026-04-23 18:49 34.83913 -91.15491 26658 ft 387 kts 263°
2026-04-23 18:50 34.83580 -91.17638 26928 ft 389 kts 263°
2026-04-23 18:50 34.82903 -91.21983 27439 ft 392 kts 263°
2026-04-23 18:50 34.82395 -91.25231 27829 ft 394 kts 263°
2026-04-23 18:50 34.81883 -91.28507 28219 ft 396 kts 263°
2026-04-23 18:51 34.81368 -91.31795 28610 ft 397 kts 263°
2026-04-23 18:51 34.80847 -91.35113 28980 ft 399 kts 263°
2026-04-23 18:51 34.80326 -91.38427 29342 ft 401 kts 263°
2026-04-23 18:51 34.79805 -91.41730 29693 ft 403 kts 263°
2026-04-23 18:52 34.79276 -91.45084 30037 ft 405 kts 263°
2026-04-23 18:52 34.78745 -91.48444 30367 ft 407 kts 263°
2026-04-23 18:52 34.78211 -91.51814 30728 ft 408 kts 263°
2026-04-23 18:52 34.77672 -91.55207 31148 ft 406 kts 263°
2026-04-23 18:53 34.77142 -91.58536 31544 ft 405 kts 263°
2026-04-23 18:53 34.76609 -91.61884 31929 ft 403 kts 263°
2026-04-23 18:53 34.76070 -91.65267 32011 ft 407 kts 263°
2026-04-23 18:54 34.74987 -91.72045 32027 ft 415 kts 263°
2026-04-23 18:54 34.73874 -91.79028 32020 ft 431 kts 263°
2026-04-23 18:55 34.72755 -91.86244 32005 ft 432 kts 263°
2026-04-23 18:55 34.71645 -91.93367 32000 ft 430 kts 263°
2026-04-23 18:56 34.70719 -91.99292 31999 ft 431 kts 263°
2026-04-23 18:56 34.69413 -92.07616 31999 ft 430 kts 263°
2026-04-23 18:57 34.68288 -92.14758 31998 ft 431 kts 263°
2026-04-23 18:57 34.67473 -92.21881 31997 ft 427 kts 268°
2026-04-23 18:58 34.66956 -92.29060 31991 ft 427 kts 268°
2026-04-23 18:58 34.66428 -92.36262 31987 ft 427 kts 268°
2026-04-23 18:59 34.65897 -92.43414 31984 ft 427 kts 268°
2026-04-23 18:59 34.65357 -92.50605 31984 ft 427 kts 268°
2026-04-23 19:00 34.64818 -92.57733 31983 ft 427 kts 268°
2026-04-23 19:00 34.64269 -92.64934 31982 ft 427 kts 268°
2026-04-23 19:01 34.63719 -92.72095 31993 ft 428 kts 268°
2026-04-23 19:01 34.63162 -92.79280 31992 ft 427 kts 268°
2026-04-23 19:02 34.62698 -92.85238 31993 ft 428 kts 268°
2026-04-23 19:02 34.62040 -92.93605 31990 ft 428 kts 268°
2026-04-23 19:03 34.61469 -93.00819 31990 ft 429 kts 268°
2026-04-23 19:03 34.60894 -93.08028 31988 ft 429 kts 268°
2026-04-23 19:04 34.60313 -93.15243 31988 ft 430 kts 268°
2026-04-23 19:04 34.59731 -93.22421 31988 ft 429 kts 268°
2026-04-23 19:05 34.59144 -93.29615 31987 ft 429 kts 268°
2026-04-23 19:05 34.58551 -93.36827 31986 ft 430 kts 268°
2026-04-23 19:06 34.57955 -93.44019 31985 ft 429 kts 268°
2026-04-23 19:06 34.57354 -93.51220 31985 ft 430 kts 268°
2026-04-23 19:07 34.56749 -93.58431 31984 ft 430 kts 268°
2026-04-23 19:07 34.56138 -93.65642 31976 ft 430 kts 267°
2026-04-23 19:08 34.55523 -93.72858 31969 ft 431 kts 267°
2026-04-23 19:08 34.54908 -93.80023 31951 ft 430 kts 267°
2026-04-23 19:09 34.54286 -93.87224 31937 ft 430 kts 267°
2026-04-23 19:09 34.53657 -93.94448 31936 ft 430 kts 267°
2026-04-23 19:10 34.53025 -94.01654 31935 ft 430 kts 267°
2026-04-23 19:10 34.52390 -94.08862 31935 ft 430 kts 267°
2026-04-23 19:11 34.51747 -94.16095 31933 ft 430 kts 267°
2026-04-23 19:11 34.51104 -94.23292 31933 ft 430 kts 267°
2026-04-23 19:12 34.50565 -94.29282 31932 ft 430 kts 267°
2026-04-23 19:12 34.49806 -94.37661 31932 ft 430 kts 267°
2026-04-23 19:13 34.49147 -94.44882 31931 ft 430 kts 267°
2026-04-23 19:13 34.48490 -94.52036 31930 ft 430 kts 267°
2026-04-23 19:14 34.47821 -94.59273 31929 ft 430 kts 267°
2026-04-23 19:14 34.47155 -94.66425 31933 ft 430 kts 266°
2026-04-23 19:15 34.46479 -94.73650 31935 ft 430 kts 266°
2026-04-23 19:15 34.45800 -94.80853 31932 ft 430 kts 266°
2026-04-23 19:16 34.45118 -94.88049 31928 ft 431 kts 266°
2026-04-23 19:16 34.44430 -94.95261 31923 ft 433 kts 266°
2026-04-23 19:17 34.43385 -95.06126 31917 ft 434 kts 265°
2026-04-23 19:17 34.42681 -95.13380 31916 ft 434 kts 265°
2026-04-23 19:18 34.41973 -95.20635 31915 ft 434 kts 265°
2026-04-23 19:18 34.41264 -95.27857 31915 ft 434 kts 265°
2026-04-23 19:19 34.40185 -95.38759 31913 ft 434 kts 265°
2026-04-23 19:20 34.39105 -95.49580 31913 ft 434 kts 265°
2026-04-23 19:20 34.38372 -95.56869 31912 ft 434 kts 265°
2026-04-23 19:21 34.37273 -95.67712 31921 ft 434 kts 265°
2026-04-23 19:22 34.36531 -95.74976 31920 ft 434 kts 265°
2026-04-23 19:22 34.35416 -95.85813 31903 ft 434 kts 265°
2026-04-23 19:23 34.34668 -95.93031 31888 ft 435 kts 265°
2026-04-23 19:24 34.33533 -96.03906 31873 ft 435 kts 265°
2026-04-23 19:24 34.32386 -96.14795 31887 ft 435 kts 265°
2026-04-23 19:25 34.30849 -96.29253 31893 ft 435 kts 265°
2026-04-23 19:26 34.29677 -96.40157 31882 ft 435 kts 265°
2026-04-23 19:27 34.27714 -96.58224 31861 ft 434 kts 265°
2026-04-23 19:28 34.26123 -96.72691 31842 ft 435 kts 264°
2026-04-23 19:29 34.24916 -96.83556 31838 ft 435 kts 264°
2026-04-23 19:30 34.23704 -96.94371 31837 ft 435 kts 264°
2026-04-23 19:31 34.22482 -97.05188 31835 ft 431 kts 265°
2026-04-23 19:31 34.21667 -97.12354 31835 ft 428 kts 265°
2026-04-23 19:32 34.20838 -97.19415 31834 ft 426 kts 265°
2026-04-23 19:32 34.19962 -97.26492 31834 ft 425 kts 265°
2026-04-23 19:33 34.19086 -97.33539 31833 ft 426 kts 265°
2026-04-23 19:33 34.17761 -97.44127 31831 ft 426 kts 265°
2026-04-23 19:34 34.16873 -97.51178 31823 ft 426 kts 265°
2026-04-23 19:35 34.15530 -97.61781 31805 ft 426 kts 265°
2026-04-23 19:35 34.14630 -97.68845 31808 ft 427 kts 264°
2026-04-23 19:36 34.13721 -97.75939 31803 ft 427 kts 264°
2026-04-23 19:36 34.12814 -97.82995 31803 ft 427 kts 264°
2026-04-23 19:37 34.11904 -97.90037 31802 ft 427 kts 264°
2026-04-23 19:37 34.10983 -97.97132 31799 ft 427 kts 264°
2026-04-23 19:38 34.10060 -98.04212 31794 ft 427 kts 264°
2026-04-23 19:38 34.09136 -98.11269 31787 ft 427 kts 264°
2026-04-23 19:39 34.08205 -98.18340 31781 ft 427 kts 264°
2026-04-23 19:39 34.07274 -98.25380 31780 ft 427 kts 264°
2026-04-23 19:40 34.06334 -98.32459 31781 ft 427 kts 264°
2026-04-23 19:40 34.05390 -98.39538 31782 ft 428 kts 264°
2026-04-23 19:41 34.04445 -98.46591 31783 ft 428 kts 264°
2026-04-23 19:41 34.03490 -98.53677 31783 ft 428 kts 265°
2026-04-23 19:42 34.02539 -98.60716 31784 ft 428 kts 265°
2026-04-23 19:42 34.01574 -98.67821 31796 ft 428 kts 264°
2026-04-23 19:43 34.00608 -98.74899 31782 ft 427 kts 264°
2026-04-23 19:43 33.99646 -98.81913 31777 ft 427 kts 264°
2026-04-23 19:44 33.98676 -98.88960 31772 ft 428 kts 264°
2026-04-23 19:44 33.97700 -98.96011 31762 ft 424 kts 264°
2026-04-23 19:45 33.96733 -99.02979 31751 ft 419 kts 264°
2026-04-23 19:45 33.95773 -99.09861 31737 ft 416 kts 265°
2026-04-23 19:46 33.94820 -99.16669 31726 ft 414 kts 265°
2026-04-23 19:46 33.93856 -99.23538 31726 ft 415 kts 265°
2026-04-23 19:46 33.93381 -99.26892 31713 ft 402 kts 265°
2026-04-23 19:47 33.93068 -99.29091 31700 ft 391 kts 265°
2026-04-23 19:47 33.92477 -99.33243 31695 ft 369 kts 265°
2026-04-23 19:47 33.92049 -99.36270 31707 ft 364 kts 265°
2026-04-23 19:48 33.91191 -99.42338 31714 ft 370 kts 265°
2026-04-23 19:48 33.90324 -99.48424 31581 ft 372 kts 265°
2026-04-23 19:48 33.89882 -99.51511 31321 ft 373 kts 265°
2026-04-23 19:49 33.89438 -99.54609 31008 ft 374 kts 265°
2026-04-23 19:49 33.88996 -99.57684 30619 ft 375 kts 265°
2026-04-23 19:49 33.88551 -99.60780 30227 ft 376 kts 265°
2026-04-23 19:49 33.88105 -99.63874 29836 ft 377 kts 265°
2026-04-23 19:50 33.87656 -99.66981 29460 ft 379 kts 264°
2026-04-23 19:50 33.87204 -99.70102 29095 ft 381 kts 264°
2026-04-23 19:50 33.86749 -99.73244 28727 ft 382 kts 264°
2026-04-23 19:50 33.86292 -99.76396 28359 ft 384 kts 264°
2026-04-23 19:51 33.85827 -99.79588 27987 ft 385 kts 263°
2026-04-23 19:51 33.85367 -99.82739 27620 ft 387 kts 263°
2026-04-23 19:51 33.84901 -99.85926 27250 ft 389 kts 263°
2026-04-23 19:51 33.84428 -99.89162 26876 ft 390 kts 263°
2026-04-23 19:52 33.83957 -99.92375 26504 ft 392 kts 263°
2026-04-23 19:52 33.83493 -99.95529 26133 ft 389 kts 263°
2026-04-23 19:52 33.83020 -99.98734 25756 ft 387 kts 263°
2026-04-23 19:52 33.82549 -100.01928 25377 ft 386 kts 263°
2026-04-23 19:53 33.82076 -100.05130 24994 ft 384 kts 263°
2026-04-23 19:53 33.81609 -100.08286 24615 ft 383 kts 262°
2026-04-23 19:53 33.81144 -100.11422 24237 ft 381 kts 262°
2026-04-23 19:53 33.80678 -100.14556 23856 ft 380 kts 262°
2026-04-23 19:54 33.80214 -100.17674 23475 ft 379 kts 262°
2026-04-23 19:54 33.79754 -100.20759 23088 ft 377 kts 262°
2026-04-23 19:54 33.79291 -100.23863 22714 ft 376 kts 262°
2026-04-23 19:54 33.78830 -100.26944 22331 ft 374 kts 262°
2026-04-23 19:55 33.78373 -100.29989 21952 ft 373 kts 262°
2026-04-23 19:55 33.77913 -100.33059 21567 ft 371 kts 262°
2026-04-23 19:55 33.77571 -100.36133 21182 ft 369 kts 266°
2026-04-23 19:55 33.77328 -100.39198 20800 ft 367 kts 265°
2026-04-23 19:56 33.77074 -100.42223 20420 ft 366 kts 265°
2026-04-23 19:56 33.76815 -100.45285 20033 ft 365 kts 265°
2026-04-23 19:56 33.76557 -100.48284 19652 ft 363 kts 265°
2026-04-23 19:56 33.76298 -100.51285 19350 ft 361 kts 265°
2026-04-23 19:57 33.76035 -100.54302 19349 ft 359 kts 265°
2026-04-23 19:57 33.75771 -100.57331 19361 ft 376 kts 265°
2026-04-23 19:57 33.75490 -100.60535 19361 ft 394 kts 265°
2026-04-23 19:57 33.75196 -100.63876 19360 ft 411 kts 265°
2026-04-23 19:58 33.74888 -100.67362 19360 ft 416 kts 264°
2026-04-23 19:58 33.74587 -100.70751 19356 ft 413 kts 264°
2026-04-23 19:58 33.74280 -100.74205 19360 ft 413 kts 264°
2026-04-23 19:58 33.73974 -100.77625 19361 ft 414 kts 264°
2026-04-23 19:59 33.73666 -100.81069 19363 ft 414 kts 264°
2026-04-23 19:59 33.73357 -100.84510 19372 ft 414 kts 264°
2026-04-23 19:59 33.73050 -100.87918 19383 ft 414 kts 264°
2026-04-23 19:59 33.72740 -100.91353 19394 ft 414 kts 264°
2026-04-23 20:00 33.72429 -100.94780 19405 ft 414 kts 264°
2026-04-23 20:00 33.72115 -100.98238 19415 ft 414 kts 264°
2026-04-23 20:00 33.71802 -101.01666 19425 ft 414 kts 264°
2026-04-23 20:00 33.71488 -101.05099 19435 ft 414 kts 264°
2026-04-23 20:01 33.71170 -101.08556 19438 ft 414 kts 264°
2026-04-23 20:01 33.70853 -101.11994 19263 ft 416 kts 264°
2026-04-23 20:01 33.70541 -101.15382 18804 ft 407 kts 264°
2026-04-23 20:01 33.70232 -101.18706 18296 ft 399 kts 263°
2026-04-23 20:02 33.69925 -101.22012 17783 ft 392 kts 263°
2026-04-23 20:02 33.69633 -101.25157 17230 ft 366 kts 263°
2026-04-23 20:02 33.69362 -101.28057 16691 ft 336 kts 263°
2026-04-23 20:02 33.69113 -101.30723 16160 ft 312 kts 263°
2026-04-23 20:03 33.68878 -101.33225 15579 ft 295 kts 263°
2026-04-23 20:03 33.68649 -101.35649 14902 ft 286 kts 263°
2026-04-23 20:03 33.68431 -101.37968 14235 ft 276 kts 263°
2026-04-23 20:03 33.68219 -101.40205 13561 ft 269 kts 263°
2026-04-23 20:04 33.68010 -101.42414 12690 ft 270 kts 263°
2026-04-23 20:04 33.67798 -101.44644 11815 ft 271 kts 263°
2026-04-23 20:04 33.67586 -101.46880 10940 ft 272 kts 263°
2026-04-23 20:04 33.67371 -101.49134 10059 ft 272 kts 263°
2026-04-23 20:05 33.67159 -101.51365 9189 ft 272 kts 263°
2026-04-23 20:05 33.66907 -101.53603 8333 ft 271 kts 259°
2026-04-23 20:05 33.66625 -101.55782 7705 ft 264 kts 264°
2026-04-23 20:05 33.66462 -101.58021 7078 ft 265 kts 264°
2026-04-23 20:06 33.66304 -101.60173 6450 ft 260 kts 267°
2026-04-23 20:06 33.66307 -101.62331 6010 ft 249 kts 270°
2026-04-23 20:06 33.66308 -101.64389 5721 ft 249 kts 269°
2026-04-23 20:06 33.66295 -101.66436 5447 ft 236 kts 268°
2026-04-23 20:07 33.66277 -101.68334 5158 ft 222 kts 268°
2026-04-23 20:07 33.66268 -101.70133 4847 ft 209 kts 269°
2026-04-23 20:07 33.66262 -101.71834 4587 ft 205 kts 269°
2026-04-23 20:07 33.66257 -101.73521 4290 ft 196 kts 269°
2026-04-23 20:08 33.66253 -101.75066 4010 ft 177 kts 269°
2026-04-23 20:08 33.66247 -101.76520 3786 ft 174 kts 269°
2026-04-23 20:08 33.66241 -101.77984 3564 ft 176 kts 269°
2026-04-23 20:08 33.66237 -101.79449 3308 ft 172 kts 269°
2026-04-23 20:09 33.66228 -101.80785 3259 ft 131 kts 269°
2026-04-23 20:09 33.66220 -101.81620 3259 ft 52 kts 274°
2026-04-23 20:09 33.66223 -101.81923 3261 ft 30 kts 268°
2026-04-23 20:09 33.66221 -101.82138 3263 ft 23 kts 271°
2026-04-23 20:10 33.66207 -101.82230 3263 ft 10 kts 236°
2026-04-23 20:10 33.66166 -101.82262 3263 ft 8 kts 200°
2026-04-23 20:10 33.66139 -101.82269 3263 ft 5 kts 185°
2026-04-23 20:10 33.66099 -101.82270 3262 ft 6 kts 182°
2026-04-23 20:11 33.66061 -101.82271 3262 ft 3 kts 189°
2026-04-23 20:11 33.66035 -101.82292 3261 ft 5 kts 242°
2026-04-23 20:11 33.66023 -101.82346 3260 ft 7 kts 234°
2026-04-23 20:11 33.65971 -101.82375 3259 ft 9 kts 190°
2026-04-23 20:12 33.65907 -101.82365 3259 ft 8 kts 158°
2026-04-23 20:12 33.65847 -101.82330 3259 ft 10 kts 151°
2026-04-23 20:12 33.65795 -101.82285 3260 ft 4 kts 124°
2026-04-23 20:12 33.65792 -101.82276 3260 ft 0 kts 107°
2026-04-23 20:13 33.65791 -101.82270 3261 ft 0 kts 101°
2026-04-23 20:13 33.65792 -101.82248 3261 ft 6 kts 78°
2026-04-23 20:13 33.65807 -101.82166 3263 ft 13 kts 84°
2026-04-23 20:13 33.65808 -101.82026 3263 ft 15 kts 90°
2026-04-23 20:14 33.65798 -101.81995 3263 ft 1 kts 147°